{"data":{"norad_id":47776,"intl_designator":"2021-017BG","name":"STARLINK-2209","alt_names":[],"object_type":"PAYLOAD","status":"ACTIVE","operator":null,"country":"US","launch_date":"2021-03-04","launch_site_code":"AFETR","launch_vehicle":null,"mission":null,"orbit_class":"UNKNOWN","rcs_meters":null,"size_class":null,"mass_kg":null,"dimensions":null,"purposes":["comms"],"wikipedia_slug":null,"has_3d_model":false,"image_url":null,"decayed_at":null,"tle_current":{"epoch":"2026-08-31T18:02:08.048256Z","epoch_age_seconds":1732058,"freshness":"OLD","line1":"1 47776U 21017BG  26243.75148204  .08160743  12316-4  79989-3 0  9991","line2":"2 47776  53.1322  64.1905 0009238 284.8011  75.2011 16.37345809305314","mean_motion":16.37345809,"eccentricity":0.0009238,"inclination_deg":53.1322,"raan_deg":64.1905,"arg_perigee_deg":284.8011,"mean_anomaly_deg":75.2011,"bstar":0.00079989,"rev_number":30531,"period_min":87.947212622083,"perigee_km":166.82073401993,"apogee_km":178.92437927679,"semimajor_km":6551.0095566484,"source":"CELESTRAK","updated_at":"2026-09-01T09:03:45.197309Z"}}}